Tracking 17921 objects as of 18-January-2017
HD Live streaming from Space Station
objects crossing your sky now

GLOBALSTAR M031

Track GLOBALSTAR M031 now!
10-day predictions
GLOBALSTAR M031 is classified as:


NORAD ID: 25946
Int'l Code: 1999-058D
Perigee: 1,616.2 km
Apogee: 1,618.6 km
Inclination: 52.0 °
Period: 118.4 minutes
Semi major axis: 7988 km
RCS: 2.5697 m2 (large)
Launch date: October 18, 1999
Source: Globalstar (GLOB)
Launch site: TYURATAM MISSILE AND SPACE COMPLEX (TTMTR)
Your satellite tracking list
Your tracking list is empty





NASA's NSSDC Master Catalog

Two Line Element Set (TLE):
1 25946U 99058D   17018.52086035 -.00000060  00000-0  31425-3 0  9998
2 25946  51.9976  33.1269 0001535  79.5177  89.3300 12.15942923791108
Source of the keplerian elements: AFSPC